Weather History for Guymon, OK

Change the Weather History Date:

Sunday, June 9, 2013

  Actual Average Record
Temperature  
Mean Temperature 75 °F 72 °F  
Max Temperature 92 °F 85 °F 100 °F (2006)
Min Temperature 58 °F 59 °F 54 °F (2014)
Degree Days  
Heating Degree Days 0 0  
Month to date heating degree days 0 6  
Since 1 June heating degree days 0 6  
Since 1 July heating degree days 4311 4455  
Cooling Degree Days 10 8  
Month to date cooling degree days 65 60  
Year to date cooling degree days 269 168  
Since 1 June cooling degree days 65 60  
Growing Degree Days 25 (Base 50)    
Moisture  
Dew Point 56 °F    
Average Humidity 58    
Maximum Humidity 90    
Minimum Humidity 25    
Precipitation  
Precipitation 0.01 in 0.12 in 0.23 in (2007)
Month to date precipitation 0.82 1.09  
Year to date precipitation 3.17 7.34  
Snow  
Snow 0.00 in - - ()
Month to date snowfall T  
Since 1 June snowfall T  
Since 1 July snowfall 22.3  
Snow Depth 0.00 in    
Sea Level Pressure  
Sea Level Pressure 29.83 in    
Wind  
Wind Speed 9 mph (SSW)    
Max Wind Speed 24 mph    
Max Gust Speed 32 mph    
Visibility 10 miles    
Events Rain    
T = Trace of Precipitation, MM = Missing Value Source: NWS Daily Summary

Daily Weather History Graph

Daily Weather History Graph

Search for Another Location

Airport:

Trip Planner

Search our weather history database for the weather conditions in past years. The results will help you decide how hot, cold, wet, or windy it might be!

Date:

Astronomy

Jun. 09, 2013 Rise Set
Actual Time 6:26 AM CDT 9:03 PM CDT
Civil Twilight 5:56 AM CDT 9:34 PM CDT
Nautical Twilight 5:18 AM CDT 10:12 PM CDT
Astronomical Twilight 4:36 AM CDT 10:54 PM CDT
Moon 7:23 AM CDT (6/9) 9:54 PM CDT (6/9)
Length of Visible Light 15h 37m
Length of Day
14h 37m
New Moon, 1% of the Moon is Illuminated
Jun 9
New Moon
Jun 16
First Quarter
Jun 23
Full
Jun 29
Last Quarter
Jul 8
New

Hourly Weather History & Observations

Time (CDT) Temp. Heat Index Dew Point Humidity Pressure Visibility Wind Dir Wind Speed Gust Speed Precip Events Conditions
12:53 AM 66.9 °F - 59.0 °F 76% 29.83 in 10.0 mi East 4.6 mph - N/A   Clear
1:53 AM 64.9 °F - 59.0 °F 81% 29.82 in 10.0 mi Calm Calm - N/A   Clear
2:53 AM 62.1 °F - 57.9 °F 86% 29.84 in 10.0 mi Calm Calm - N/A   Clear
3:53 AM 61.0 °F - 57.0 °F 87% 29.84 in 10.0 mi Calm Calm - N/A   Clear
4:53 AM 60.1 °F - 55.9 °F 86% 29.85 in 10.0 mi WNW 5.8 mph - N/A   Clear
5:53 AM 59.0 °F - 55.9 °F 90% 29.85 in 10.0 mi West 8.1 mph - N/A   Clear
6:53 AM 59.0 °F - 55.9 °F 90% 29.87 in 9.0 mi Calm Calm - N/A   Mostly Cloudy
7:53 AM 61.0 °F - 57.0 °F 87% 29.90 in 10.0 mi West 6.9 mph - 0.00 in Rain Light Rain
8:53 AM 64.9 °F - 59.0 °F 81% 29.91 in 10.0 mi WNW 5.8 mph - 0.01 in   Scattered Clouds
9:53 AM 71.1 °F - 57.0 °F 61% 29.92 in 10.0 mi Calm Calm - N/A   Partly Cloudy
10:53 AM 73.9 °F - 55.9 °F 53% 29.91 in 10.0 mi Calm Calm - N/A   Scattered Clouds
11:53 AM 79.0 °F - 55.0 °F 44% 29.91 in 10.0 mi SSE 6.9 mph - N/A   Mostly Cloudy
12:53 PM 84.0 °F - 48.0 °F 28% 29.88 in 10.0 mi SSW 12.7 mph 17.3 mph N/A   Clear
1:53 PM 86.0 °F - 46.9 °F 26% 29.86 in 10.0 mi South 11.5 mph - N/A   Clear
2:53 PM 88.0 °F - 48.9 °F 26% 29.85 in 10.0 mi SSW 13.8 mph 25.3 mph N/A   Clear
3:53 PM 89.1 °F - 52.0 °F 28% 29.82 in 10.0 mi SSW 12.7 mph 25.3 mph N/A   Clear
4:53 PM 89.1 °F 86.9 °F 54.0 °F 30% 29.80 in 10.0 mi SW 20.7 mph 26.5 mph N/A   Mostly Cloudy
5:53 PM 91.9 °F 89.5 °F 53.1 °F 27% 29.77 in 10.0 mi SSW 20.7 mph - N/A   Clear
6:53 PM 91.0 °F 88.9 °F 55.0 °F 29% 29.76 in 10.0 mi SSW 16.1 mph 31.1 mph N/A   Clear
7:53 PM 89.1 °F 87.7 °F 57.0 °F 34% 29.75 in 10.0 mi SSW 20.7 mph 27.6 mph N/A   Clear
8:53 PM 84.9 °F 84.2 °F 57.9 °F 40% 29.75 in 10.0 mi South 11.5 mph - N/A   Clear
9:53 PM 80.1 °F 80.7 °F 59.0 °F 48% 29.77 in 10.0 mi South 8.1 mph - N/A   Clear
10:53 PM 75.0 °F - 59.0 °F 57% 29.79 in 10.0 mi South 9.2 mph - N/A   Clear
11:53 PM 73.9 °F - 57.9 °F 57% 29.78 in 10.0 mi South 10.4 mph - N/A   Clear